DW9417 Weather Reports


Display with metric or nautical units.
time (UTC)temp
F
wind
direction
speed
MPH
gust
MPH
rain 1hr
in
rain 24hr
in
rain mn
in
humidity
%
barometer
mb
20260506123052 57 105 5.0 7.0 0.00 0.00 0.00 61 1030.1
20260506121556 58 112 6.0 9.0 0.00 0.00 0.00 60 1030.0
20260506120100 58 118 5.0 9.0 0.00 0.00 0.00 60 1029.9
20260506114551 58 123 5.0 9.0 0.00 0.00 0.00 60 1029.7
20260506113049 59 116 4.0 10.0 0.00 0.00 0.00 59 1029.7
20260506111549 59 123 5.0 10.0 0.00 0.00 0.00 58 1029.6
20260506110058 59 112 4.0 8.0 0.00 0.00 0.00 57 1029.3
20260506104601 60 128 3.0 5.0 0.00 0.00 0.00 56 1029.2
20260506103049 61 120 4.0 8.0 0.00 0.00 0.00 55 1029.3
20260506101546 61 123 3.0 6.0 0.00 0.00 0.00 54 1029.1
20260506100053 61 123 3.0 6.0 0.00 0.00 0.00 53 1029.0
20260506094545 63 114 3.0 6.0 0.00 0.00 0.00 51 1028.8
20260506093045 64 123 3.0 7.0 0.00 0.00 0.00 49 1028.6
20260506091544 65 126 3.0 7.0 0.00 0.00 0.00 48 1028.5
20260506090043 66 135 5.0 11.0 0.00 0.00 0.00 48 1028.5
20260506084613 67 121 7.0 10.0 0.00 0.00 0.00 47 1028.4
20260506083043 67 121 4.0 12.0 0.00 0.00 0.00 48 1028.3
20260506081551 68 153 6.0 12.0 0.00 0.00 0.00 47 1028.3
20260506073040 69 121 6.0 14.0 0.00 0.00 0.00 47 1028.2
20260506071538 69 167 5.0 11.0 0.00 0.00 0.00 47 1028.2
20260506061533 68 93 8.0 12.0 0.00 0.00 0.00 50 1028.3
20260506044524 66 38 4.0 13.0 0.00 0.00 0.00 57 1029.1
20260506043023 66 101 7.0 12.0 0.00 0.00 0.00 59 1029.3
20260506041519 65 69 7.0 11.0 0.00 0.00 0.00 61 1029.5
20260506040017 64 78 6.0 11.0 0.00 0.00 0.00 63 1029.7
20260506034516 63 87 6.0 17.0 0.00 0.00 0.00 64 1030.0
20260506033014 63 105 7.0 13.0 0.00 0.00 0.00 65 1030.1
20260506031512 62 109 7.0 13.0 0.00 0.00 0.00 66 1030.3
20260506030007 61 113 7.0 13.0 0.00 0.00 0.00 68 1030.5
20260506024507 61 62 6.0 12.0 0.00 0.00 0.00 68 1030.5
20260506023004 60 33 5.0 12.0 0.00 0.00 0.00 69 1030.6
20260506021501 59 57 5.0 11.0 0.00 0.00 0.00 70 1030.8
20260506020056 58 45 5.0 11.0 0.00 0.00 0.00 72 1031.0
20260506014553 57 101 6.0 11.0 0.00 0.00 0.00 74 1031.0
20260506013104 57 39 7.0 13.0 0.00 0.00 0.00 73 1031.0
20260506011612 57 40 5.0 11.0 0.00 0.00 0.00 74 1031.0
20260506010055 56 46 6.0 10.0 0.00 0.00 0.00 75 1030.8
20260506004543 55 115 3.0 8.0 0.00 0.00 0.00 78 1030.7
20260506003041 54 73 3.0 9.0 0.00 0.00 0.00 81 1030.6
20260506001537 52 120 3.0 8.0 0.00 0.00 0.00 82 1030.5
20260506000033 51 126 1.0 3.0 0.00 0.00 0.00 84 1030.4
20260505234530 50 121 0.0 6.0 0.00 0.00 0.00 84 1030.2
20260505233028 50 128 3.0 7.0 0.00 0.00 0.00 84 1030.1
20260505231541 48 107 2.0 4.0 0.00 0.00 0.00 86 1029.8
20260505230026 48 100 0.0 2.0 0.00 0.00 0.00 85 1029.7
20260505224521 48 101 0.0 1.0 0.00 0.00 0.00 84 1029.6
20260505223019 48 103 0.0 1.0 0.00 0.00 0.00 83 1029.4
20260505221514 49 103 0.0 3.0 0.00 0.00 0.00 82 1029.1
20260505220010 50 104 0.0 4.0 0.00 0.00 0.00 82 1028.9
20260505214508 49 81 1.0 3.0 0.00 0.00 0.00 82 1028.8
20260505213014 50 105 0.0 3.0 0.00 0.00 0.00 82 1028.8
20260505211509 50 103 0.0 3.0 0.00 0.00 0.00 81 1028.8
20260505210002 50 126 0.0 2.0 0.00 0.00 0.00 81 1028.5
20260505204559 50 127 0.0 4.0 0.00 0.00 0.00 80 1028.4
20260505203120 51 126 1.0 6.0 0.00 0.00 0.00 80 1028.4
20260505201603 51 101 2.0 4.0 0.00 0.00 0.00 79 1028.3
20260505200057 52 96 0.0 0.0 0.00 0.00 0.00 79 1028.2
20260505194553 52 96 0.0 6.0 0.00 0.00 0.00 79 1028.2
20260505193052 53 104 1.0 6.0 0.00 0.00 0.00 79 1028.2
20260505191601 52 115 2.0 7.0 0.00 0.00 0.00 79 1028.1
20260505190049 52 121 2.0 6.0 0.00 0.00 0.00 80 1028.0
20260505184550 52 124 2.0 7.0 0.00 0.00 0.00 80 1028.1
20260505183049 51 99 2.0 6.0 0.00 0.00 0.00 81 1028.1
20260505181548 51 122 0.0 0.0 0.00 0.00 0.00 78 1028.0
20260505180044 52 121 0.0 2.0 0.00 0.00 0.00 77 1028.0
20260505174545 53 123 2.0 8.0 0.00 0.00 0.00 77 1027.9
20260505173041 53 115 4.0 8.0 0.00 0.00 0.00 76 1027.8
20260505171544 53 104 2.0 7.0 0.00 0.00 0.00 76 1028.0
20260505170100 52 109 1.0 4.0 0.00 0.00 0.00 77 1027.9
20260505164541 52 100 0.0 0.0 0.00 0.00 0.00 74 1027.8
20260505163035 53 101 0.0 0.0 0.00 0.00 0.00 72 1027.9
20260505161529 54 114 1.0 6.0 0.00 0.00 0.00 72 1027.8
20260505153024 55 111 6.0 11.0 0.00 0.00 0.00 70 1027.6
20260505151523 55 158 1.0 6.0 0.00 0.00 0.00 70 1027.6
20260505124520 52 144 0.0 0.0 0.00 0.00 0.00 71 1027.0